Λίγο νεφελώδης και με cirrus
Λίγο νεφελώδης και με λίγα cirrus
Λίγο νεφελώδης και με λίγα cirrus
Λίγο νεφελώδης και με λίγα cirrus
Νεφελώδης
Σχεδόν αίθριος με λίγα χαμηλά νέφη
Αίθριος ουρανός
Αίθριος αλλά θολός
Αίθριος αλλά θολός
(°C)
18°
18°
17°
17°
15°
15°
15°
15°
14°
14°
13°
13°
13°
13°
12°
12°
12°
12°
(°C)
15°
14°
13°
12°
12°
11°
11°
10°
10°
Β
Β
Β
ΒΒΔ
ΒΔ
ΒΔ
ΒΔ
ΒΔ
ΒΔ
(km/h)
15-25
14-25
12-24
10-21
9-17
9-16
9-15
9-15
9-15
(χιλιοστά)
0
0
0
0
0
0
0
0
0
(%)
0
0
1
1
1
1
1
0
0

Ανύψωση ήλιου

/ 14.7°
sun-icon
UV 4
04:44
21:16
Φθίνων αμφίκυρτος (φάση σελήνης) (208°)
22:30
06:46

METAR για 55.31°Β 61.5°Α (USCC)

Χρόνος Συνθήκες Θερμοκρασία/
Σημείο δρόσου
Άνεμος Ορατότητα Καιρός Νέφη Πίεση Αλλαγή Ανεπεξέργαστο
VFR 18°C / 11°C 350º 12kt 9700m - Scattered Clouds 4000ft 1007 No Significant change USCC 231400Z 35006MPS 9999 SCT040CB 18/11 Q1007 R27/000060 NOSIG RMK QFE735
VFR 19°C / 10°C 350º 10kt 9700m - Scattered Clouds 4000ft 1007 No Significant change USCC 231330Z 35005MPS 9999 SCT040CB 19/10 Q1007 R27/000060 NOSIG RMK QFE735
VFR 19°C / 10°C 350º 10kt 9700m - Scattered Clouds 4000ft 1007 No Significant change USCC 231300Z 35005MPS 9999 SCT040CB 19/10 Q1007 R27/000060 NOSIG RMK QFE735
VFR 19°C / 10°C 360º 8kt 9700m - Scattered Clouds 4000ft 1007 No Significant change USCC 231230Z 36004MPS 9999 SCT040CB 19/10 Q1007 R27/000060 NOSIG RMK QFE735
VFR 20°C / 11°C 20º 10kt 9700m - Scattered Clouds 4000ft 1007 No Significant change USCC 231200Z 02005MPS 9999 SCT040CB 20/11 Q1007 R27/000060 NOSIG RMK QFE735
VFR 20°C / 11°C 30º 12kt 9700m - Scattered Clouds 4000ft 1006 No Significant change USCC 231130Z 03006MPS 9999 SCT040CB 20/11 Q1006 R27/000060 NOSIG RMK QFE735
VFR 20°C / 11°C 20º 10kt 9700m - Scattered Clouds 4000ft 1006 No Significant change USCC 231100Z 02005MPS 9999 SCT040CB 20/11 Q1006 R27/000060 NOSIG RMK QFE735
VFR 20°C / 11°C 10º 14kt 9700m - Scattered Clouds 4000ft 1006 No Significant change USCC 231030Z 01007MPS 9999 SCT040CB 20/11 Q1006 R27/000060 NOSIG RMK QFE735
VFR 21°C / 11°C 10º 12kt 9700m - Scattered Clouds 4000ft 1006 No Significant change USCC 231000Z 01006MPS 9999 SCT040CB 21/11 Q1006 R27/000060 NOSIG RMK QFE735
VFR 19°C / 10°C 10º 14kt Gust 23kt 9700m - Scattered Clouds 4000ft 1006 No Significant change USCC 230930Z 01007G12MPS 9999 SCT040CB 19/10 Q1006 R27/000060 NOSIG RMK QFE735
VFR 19°C / 10°C 10º 14kt 9700m - Scattered Clouds 4000ft 1006 No Significant change USCC 230900Z 01007MPS 9999 SCT040CB 19/10 Q1006 R27/000060 NOSIG RMK QFE735
VFR 19°C / 11°C 20º 14kt 9700m - Scattered Clouds 4000ft 1006 No Significant change USCC 230830Z 02007MPS 9999 SCT040CB 19/11 Q1006 R27/000060 NOSIG RMK QFE735
VFR 21°C / 12°C 20º 14kt 9700m - Scattered Clouds 3000ft 1006 No Significant change USCC 230800Z 02007MPS 9999 SCT030CB 21/12 Q1006 R27/000060 NOSIG RMK QFE734
VFR 20°C / 12°C 20º 14kt 9700m - Scattered Clouds 3000ft 1006 No Significant change USCC 230730Z 02007MPS 9999 SCT030CB 20/12 Q1006 R27/000060 NOSIG RMK QFE734
VFR 19°C / 13°C 10º 14kt 9700m - Scattered Clouds 3000ft 1006 No Significant change USCC 230700Z 01007MPS 9999 SCT030CB 19/13 Q1006 R27/000060 NOSIG RMK QFE734
VFR 19°C / 14°C 30º 14kt 9700m - Scattered Clouds 2600ft 1006 No Significant change USCC 230630Z 03007MPS 9999 SCT026CB 19/14 Q1006 R27/000060 NOSIG RMK QFE734
VFR 17°C / 13°C 10º 16kt 9700m - Scattered Clouds 2000ft 1005 No Significant change. Runway 27: Wet or puddles, 26-50% contamination with <1mm, friction coefficient 0.45. USCC 230600Z 01008MPS 9999 SCT020CB 17/13 Q1005 R27/250045 NOSIG RMK QFE734
MVFR 17°C / 14°C 10º 12kt 9700m - Broken Clouds 2000ft 1005 No Significant change. Runway 27: Wet or puddles, 26-50% contamination with <1mm, friction coefficient 0.45. USCC 230530Z 01006MPS 9999 BKN020CB 17/14 Q1005 R27/250045 NOSIG RMK QFE734
MVFR 17°C / 15°C 360º 10kt 9700m - Broken Clouds 1400ft 1005 No Significant change. Runway 09: Wet or puddles, 26-50% contamination with <1mm, friction coefficient 0.45. USCC 230500Z 36005MPS 9999 BKN014CB 17/15 Q1005 R09/250045 NOSIG RMK QFE734
MVFR 16°C / 15°C 360º 8kt 9700m - Broken Clouds 1400ft 1005 No Significant change. Runway 09: Wet or puddles, 51-100% contamination with 2mm, friction coefficient 0.42. USCC 230430Z 36004MPS 9999 BKN014CB 16/15 Q1005 R09/290242 NOSIG RMK QFE733
MVFR 15°C / 15°C 10º 10kt 9700m Light Showers Rain 3.00mm precipitation Broken Clouds 1100ft 1005 No Significant change. Runway 09: Wet or puddles, 51-100% contamination with 2mm, friction coefficient 0.42. USCC 230400Z 01005MPS 9999 -SHRA BKN011CB 15/15 Q1005 R09/290242 NOSIG RMK QFE733
MVFR 15°C / 15°C 10º 10kt 9700m Light Showers Rain 3.00mm precipitation Broken Clouds 1200ft 1005 No Significant change. Runway 09: Wet or puddles, 51-100% contamination with 2mm, friction coefficient 0.42. USCC 230330Z 01005MPS 9999 -SHRA BKN012CB 15/15 Q1005 R09/290242 NOSIG RMK QFE733
IFR 14°C / 14°C 10º 10kt 9700m Light Showers Rain 3.00mm precipitation Broken Clouds 900ft 1005 No Significant change. Runway 09: Wet or puddles, 51-100% contamination with 2mm, friction coefficient 0.42. USCC 230300Z 01005MPS 9999 -SHRA BKN009CB 14/14 Q1005 R09/290242 NOSIG RMK QFE733
IFR 14°C / 14°C 10º 10kt 7000m Light Showers Rain 3.00mm precipitation Broken Clouds 700ft 1005 No Significant change. Runway 09: Wet or puddles, 51-100% contamination with 2mm, friction coefficient 0.42. USCC 230247Z 01005MPS 7000 -SHRA BKN007CB 14/14 Q1005 R09/290242 NOSIG RMK QFE733

VFR

18°C / 11°C

[Περισσότερο]
Άνεμος 350º 12kt
Ορατότητα 9700m
Καιρός -
Νέφη Scattered Clouds 4000ft
Πίεση 1007
Αλλαγή No Significant change
Ανεπεξέργαστο USCC 231400Z 35006MPS 9999 SCT040CB 18/11 Q1007 R27/000060 NOSIG RMK QFE735

VFR

19°C / 10°C

[Περισσότερο]
Άνεμος 350º 10kt
Ορατότητα 9700m
Καιρός -
Νέφη Scattered Clouds 4000ft
Πίεση 1007
Αλλαγή No Significant change
Ανεπεξέργαστο USCC 231330Z 35005MPS 9999 SCT040CB 19/10 Q1007 R27/000060 NOSIG RMK QFE735

VFR

19°C / 10°C

[Περισσότερο]
Άνεμος 350º 10kt
Ορατότητα 9700m
Καιρός -
Νέφη Scattered Clouds 4000ft
Πίεση 1007
Αλλαγή No Significant change
Ανεπεξέργαστο USCC 231300Z 35005MPS 9999 SCT040CB 19/10 Q1007 R27/000060 NOSIG RMK QFE735

VFR

19°C / 10°C

[Περισσότερο]
Άνεμος 360º 8kt
Ορατότητα 9700m
Καιρός -
Νέφη Scattered Clouds 4000ft
Πίεση 1007
Αλλαγή No Significant change
Ανεπεξέργαστο USCC 231230Z 36004MPS 9999 SCT040CB 19/10 Q1007 R27/000060 NOSIG RMK QFE735

VFR

20°C / 11°C

[Περισσότερο]
Άνεμος 20º 10kt
Ορατότητα 9700m
Καιρός -
Νέφη Scattered Clouds 4000ft
Πίεση 1007
Αλλαγή No Significant change
Ανεπεξέργαστο USCC 231200Z 02005MPS 9999 SCT040CB 20/11 Q1007 R27/000060 NOSIG RMK QFE735

VFR

20°C / 11°C

[Περισσότερο]
Άνεμος 30º 12kt
Ορατότητα 9700m
Καιρός -
Νέφη Scattered Clouds 4000ft
Πίεση 1006
Αλλαγή No Significant change
Ανεπεξέργαστο USCC 231130Z 03006MPS 9999 SCT040CB 20/11 Q1006 R27/000060 NOSIG RMK QFE735

VFR

20°C / 11°C

[Περισσότερο]
Άνεμος 20º 10kt
Ορατότητα 9700m
Καιρός -
Νέφη Scattered Clouds 4000ft
Πίεση 1006
Αλλαγή No Significant change
Ανεπεξέργαστο USCC 231100Z 02005MPS 9999 SCT040CB 20/11 Q1006 R27/000060 NOSIG RMK QFE735

VFR

20°C / 11°C

[Περισσότερο]
Άνεμος 10º 14kt
Ορατότητα 9700m
Καιρός -
Νέφη Scattered Clouds 4000ft
Πίεση 1006
Αλλαγή No Significant change
Ανεπεξέργαστο USCC 231030Z 01007MPS 9999 SCT040CB 20/11 Q1006 R27/000060 NOSIG RMK QFE735

VFR

21°C / 11°C

[Περισσότερο]
Άνεμος 10º 12kt
Ορατότητα 9700m
Καιρός -
Νέφη Scattered Clouds 4000ft
Πίεση 1006
Αλλαγή No Significant change
Ανεπεξέργαστο USCC 231000Z 01006MPS 9999 SCT040CB 21/11 Q1006 R27/000060 NOSIG RMK QFE735

VFR

19°C / 10°C

[Περισσότερο]
Άνεμος 10º 14kt Gust 23kt
Ορατότητα 9700m
Καιρός -
Νέφη Scattered Clouds 4000ft
Πίεση 1006
Αλλαγή No Significant change
Ανεπεξέργαστο USCC 230930Z 01007G12MPS 9999 SCT040CB 19/10 Q1006 R27/000060 NOSIG RMK QFE735

VFR

19°C / 10°C

[Περισσότερο]
Άνεμος 10º 14kt
Ορατότητα 9700m
Καιρός -
Νέφη Scattered Clouds 4000ft
Πίεση 1006
Αλλαγή No Significant change
Ανεπεξέργαστο USCC 230900Z 01007MPS 9999 SCT040CB 19/10 Q1006 R27/000060 NOSIG RMK QFE735

VFR

19°C / 11°C

[Περισσότερο]
Άνεμος 20º 14kt
Ορατότητα 9700m
Καιρός -
Νέφη Scattered Clouds 4000ft
Πίεση 1006
Αλλαγή No Significant change
Ανεπεξέργαστο USCC 230830Z 02007MPS 9999 SCT040CB 19/11 Q1006 R27/000060 NOSIG RMK QFE735

VFR

21°C / 12°C

[Περισσότερο]
Άνεμος 20º 14kt
Ορατότητα 9700m
Καιρός -
Νέφη Scattered Clouds 3000ft
Πίεση 1006
Αλλαγή No Significant change
Ανεπεξέργαστο USCC 230800Z 02007MPS 9999 SCT030CB 21/12 Q1006 R27/000060 NOSIG RMK QFE734

VFR

20°C / 12°C

[Περισσότερο]
Άνεμος 20º 14kt
Ορατότητα 9700m
Καιρός -
Νέφη Scattered Clouds 3000ft
Πίεση 1006
Αλλαγή No Significant change
Ανεπεξέργαστο USCC 230730Z 02007MPS 9999 SCT030CB 20/12 Q1006 R27/000060 NOSIG RMK QFE734

VFR

19°C / 13°C

[Περισσότερο]
Άνεμος 10º 14kt
Ορατότητα 9700m
Καιρός -
Νέφη Scattered Clouds 3000ft
Πίεση 1006
Αλλαγή No Significant change
Ανεπεξέργαστο USCC 230700Z 01007MPS 9999 SCT030CB 19/13 Q1006 R27/000060 NOSIG RMK QFE734

VFR

19°C / 14°C

[Περισσότερο]
Άνεμος 30º 14kt
Ορατότητα 9700m
Καιρός -
Νέφη Scattered Clouds 2600ft
Πίεση 1006
Αλλαγή No Significant change
Ανεπεξέργαστο USCC 230630Z 03007MPS 9999 SCT026CB 19/14 Q1006 R27/000060 NOSIG RMK QFE734

VFR

17°C / 13°C

[Περισσότερο]
Άνεμος 10º 16kt
Ορατότητα 9700m
Καιρός -
Νέφη Scattered Clouds 2000ft
Πίεση 1005
Αλλαγή No Significant change. Runway 27: Wet or puddles, 26-50% contamination with <1mm, friction coefficient 0.45.
Ανεπεξέργαστο USCC 230600Z 01008MPS 9999 SCT020CB 17/13 Q1005 R27/250045 NOSIG RMK QFE734

MVFR

17°C / 14°C

[Περισσότερο]
Άνεμος 10º 12kt
Ορατότητα 9700m
Καιρός -
Νέφη Broken Clouds 2000ft
Πίεση 1005
Αλλαγή No Significant change. Runway 27: Wet or puddles, 26-50% contamination with <1mm, friction coefficient 0.45.
Ανεπεξέργαστο USCC 230530Z 01006MPS 9999 BKN020CB 17/14 Q1005 R27/250045 NOSIG RMK QFE734

MVFR

17°C / 15°C

[Περισσότερο]
Άνεμος 360º 10kt
Ορατότητα 9700m
Καιρός -
Νέφη Broken Clouds 1400ft
Πίεση 1005
Αλλαγή No Significant change. Runway 09: Wet or puddles, 26-50% contamination with <1mm, friction coefficient 0.45.
Ανεπεξέργαστο USCC 230500Z 36005MPS 9999 BKN014CB 17/15 Q1005 R09/250045 NOSIG RMK QFE734

MVFR

16°C / 15°C

[Περισσότερο]
Άνεμος 360º 8kt
Ορατότητα 9700m
Καιρός -
Νέφη Broken Clouds 1400ft
Πίεση 1005
Αλλαγή No Significant change. Runway 09: Wet or puddles, 51-100% contamination with 2mm, friction coefficient 0.42.
Ανεπεξέργαστο USCC 230430Z 36004MPS 9999 BKN014CB 16/15 Q1005 R09/290242 NOSIG RMK QFE733

MVFR

15°C / 15°C

[Περισσότερο]
Άνεμος 10º 10kt
Ορατότητα 9700m
Καιρός Light Showers Rain 3.00mm precipitation
Νέφη Broken Clouds 1100ft
Πίεση 1005
Αλλαγή No Significant change. Runway 09: Wet or puddles, 51-100% contamination with 2mm, friction coefficient 0.42.
Ανεπεξέργαστο USCC 230400Z 01005MPS 9999 -SHRA BKN011CB 15/15 Q1005 R09/290242 NOSIG RMK QFE733

MVFR

15°C / 15°C

[Περισσότερο]
Άνεμος 10º 10kt
Ορατότητα 9700m
Καιρός Light Showers Rain 3.00mm precipitation
Νέφη Broken Clouds 1200ft
Πίεση 1005
Αλλαγή No Significant change. Runway 09: Wet or puddles, 51-100% contamination with 2mm, friction coefficient 0.42.
Ανεπεξέργαστο USCC 230330Z 01005MPS 9999 -SHRA BKN012CB 15/15 Q1005 R09/290242 NOSIG RMK QFE733

IFR

14°C / 14°C

[Περισσότερο]
Άνεμος 10º 10kt
Ορατότητα 9700m
Καιρός Light Showers Rain 3.00mm precipitation
Νέφη Broken Clouds 900ft
Πίεση 1005
Αλλαγή No Significant change. Runway 09: Wet or puddles, 51-100% contamination with 2mm, friction coefficient 0.42.
Ανεπεξέργαστο USCC 230300Z 01005MPS 9999 -SHRA BKN009CB 14/14 Q1005 R09/290242 NOSIG RMK QFE733

IFR

14°C / 14°C

[Περισσότερο]
Άνεμος 10º 10kt
Ορατότητα 7000m
Καιρός Light Showers Rain 3.00mm precipitation
Νέφη Broken Clouds 700ft
Πίεση 1005
Αλλαγή No Significant change. Runway 09: Wet or puddles, 51-100% contamination with 2mm, friction coefficient 0.42.
Ανεπεξέργαστο USCC 230247Z 01005MPS 7000 -SHRA BKN007CB 14/14 Q1005 R09/290242 NOSIG RMK QFE733

TAF για 55.31°Β 61.5°Α (USCC)

From till


From till Wind 350º 6kt. Gust 19kt. Visibility 9700m. Scattered Clouds 4000ft.
Temporarly from till Wind 10º 19kt. Light Showers Rain . Broken Clouds 2000ft.

Ανεπεξέργαστο: TAF USCC 231052Z 2312/2412 35003G10MPS 9999 SCT040CB TEMPO 2312/2315 01010MPS -SHRA BKN020CB

Ραντάρ για 55.31°Β 61.5°Α

Ψιλοβρέχει
Ελαφριά
Μέτρια
Έντονη
Πολύ έντονες
Χαλάζι

Ο δείκτης θέσης τοποθετείται στο 55.31°Β 61.5°Α. Οι πορτοκαλί σταυροί υποδεικνύουν κεραυνούς. Δεδομένα που παρέχονται από nowcast.de (διαθέσιμα στις ΗΠΑ, την Ευρώπη, την Αυστραλία). Το ψιλόβροχο ή το ελαφρύ χιόνι μπορεί να είναι αόρατο για το ραντάρ. Η ένταση της βροχόπτωσης είναι χρωματικά κωδικοποιημένη και κυμαίνεται από τυρκουάζ έως κόκκινο.

Τρέχουσες εικόνες δορυφόρου και βροχής για 55.31°Β 61.5°Α

Η ένδειξη τοποθεσίας τοποθετείται στο 55.31°Β 61.5°Α. [Περισσότερο]

Οι δορυφορικές εικόνες σε πραγματικό χρόνο συνδυάζουν ορατό φως κατά τη διάρκεια της ημέρας με υπέρυθρη ακτινοβολία κατά τη διάρκεια της νύχτας. Κατά τη διάρκεια της νύχτας, η εικόνα δεν είναι σκοτεινή μιας και η υπέρυθρη ακτινοβολία μπορεί να εντοπίσει τις διαφορές στη θερμοκρασία. Δυστυχώς, είναι δύσκολο να ξεχωρίσουν οι χαμηλές νεφώσεις και η ομίχλη από τις θερμοκρασίες εδάφους και έτσι μπορεί να είναι σχετικά αόρατα κατά τη διάρκεια της νύχτας. Οι εικόνες από τον δορυφόρο Meteosat για την Ευρώπη ενημερώνονται σε πραγματικό χρόνο κάθε 5 λεπτά. Οι εικόνες από τους δορυφόρους GOES-16/GOES-17 (Βόρεια & Λατινική Αμερική) και Himawari (Ασία) ενημερώνονται κάθε 10 λεπτά.

Η βροχόπτωση εκτιμάται από ραντάρ και δορυφόρους. Οι εκτιμήσεις βροχόπτωσης από τους δορυφόρους είναι λιγότερο ακριβείς τη νύχτα απ' ό,τι κατά τη διάρκεια της ημέρας.

© 2024 meteoblue, NOAA Satellites GOES-16 and EUMETSAT. Δεδομένα αστραπών παρεχόμενα από nowcast.

Επιστροφή στην κορυφή
×
Γεια σου,
φαίνεται ότι χρησιμοποιείς ένα πρόγραμμα αποκλεισμού διαφημίσεων.

Η διαφήμιση είναι απαραίτητη για τη διατήρηση του δωρεάν ιστότοπού μας με μοναδική λεπτομέρεια και ακρίβεια.

Παρακαλούμε καταχωρήστε το www.meteoblue.com στη λευκή λίστα του ad blocker σας ή σκεφτείτε να αγοράσετε ένα από τα προϊόντα μας:

Έχετε ήδη συνδρομή;
Τότε παρακαλούμε σύνδεση.